Location: Lake Zurich
(42.1970°N, 88.0930°W)
Time: 16:28:01
(UTC-05:00)

Amateur Radio Satellites - All Passes

Search period start: 31 October 2014 15:58
Search period end: 01 November 2014 15:58
Location: Lake Zurich, 42.1970°N, 88.0930°W

Satellite Date Start Highest point End Downlink Frequencies (MHz)
Time Altitude Azimuth
TMSAT-1 31 Oct 16:00:28 16:04:56 27° 265° (W) 16:09:26 436.925 FM
ISS 31 Oct 16:07:25 16:10:42 53° 30° (NNE) 16:13:59 145.800 FM
Uosat F 31 Oct 16:35:04 16:40:06 80° 256° (WSW) 16:45:10 435.120 FM
AO-7 31 Oct 16:50:26 16:58:28 55° 258° (WSW) 17:06:35 29.400 - 29.500 MHz
OPAL 31 Oct 17:05:53 17:08:24 14° 92° (E) 17:10:55 ?
KITSAT 1 31 Oct 17:34:13 17:39:34 19° 27° (NNE) 17:44:54 435.175 FM
JAS-2 31 Oct 17:37:35 17:43:53 86° 256° (WSW) 17:51:05 435.800 - 435.900 CW/SSB, 435.910 FM
Hamsat 31 Oct 17:41:26 17:45:35 67° 75° (ENE) 17:49:44 145.90 MHz
ISS 31 Oct 17:44:39 17:47:09 20° 227° (SW) 17:49:38 145.800 FM
SO-50 31 Oct 18:04:11 18:06:12 12° 33° (NNE) 18:08:13 436.795 FM
SO-67 31 Oct 18:25:28 18:28:10 22° 70° (ENE) 18:30:53 435.3500 MHz FM
OPAL 31 Oct 18:42:50 18:47:46 68° 289° (WNW) 18:52:40 ?
STRAND 1 31 Oct 19:01:02 19:05:26 28° 95° (E) 19:09:47 ?
HO-68 31 Oct 19:07:45 19:12:12 18° 53° (NE) 19:16:39 435.675 MHz FM
Hamsat 31 Oct 19:21:39 19:21:58 10° 271° (W) 19:22:17 145.90 MHz
JAS-2 31 Oct 19:27:01 19:30:10 14° 277° (W) 19:33:29 435.800 - 435.900 CW/SSB, 435.910 FM
KITSAT 1 31 Oct 19:29:01 19:36:58 56° 52° (NE) 19:44:52 435.175 FM
SO-50 31 Oct 19:42:57 19:47:45 59° 53° (NE) 19:52:35 436.795 FM
Oscar 10/S400 31 Oct 19:52:31 20:24:28 53° 196° (SSW) 04:52:12 145.825 - 145.975 CW/USB, Beacon 145.810 USB
SO-67 31 Oct 19:58:26 20:01:04 20° 266° (W) 20:03:43 435.3500 MHz FM
UOSAT-12 31 Oct 20:25:56 20:29:31 21° 41° (NE) 20:33:03 437.025 FM, 437.400 FM
Oscar 11 31 Oct 20:26:25 20:28:11 12° 62° (ENE) 20:29:56 145.825 FM, Beacon 2401.500 USB
AO-40 31 Oct 20:30:13 21:20:03 12° 106° (ESE) 21:57:14 Beacon 2401.320
STRAND 1 31 Oct 20:39:58 20:44:40 37° 292° (WNW) 20:49:19 ?
RS-15 31 Oct 20:49:13 20:59:48 56° 113° (ESE) 21:10:18 29.354 - 29.394 USB, Beacon 29.352 USB
HO-68 31 Oct 20:51:41 20:58:51 84° 72° (ENE) 21:06:05 435.675 MHz FM
SO-50 31 Oct 21:24:35 21:27:53 18° 250° (WSW) 21:31:12 436.795 FM
UKube-1 31 Oct 21:24:49 21:29:04 55° 73° (ENE) 21:33:21 145.840 MHz, 145.915 MHz
KITSAT 1 31 Oct 21:24:56 21:32:01 35° 252° (WSW) 21:39:06 435.175 FM
ZACube-1 31 Oct 21:34:56 21:38:48 29° 69° (ENE) 21:42:37 437.345 MHz
Oscar 11 31 Oct 21:59:30 22:03:48 68° 258° (WSW) 22:08:06 145.825 FM, Beacon 2401.500 USB
UOSAT-12 31 Oct 22:05:24 22:10:04 62° 240° (WSW) 22:14:38 437.025 FM, 437.400 FM
FUNcube-1 31 Oct 22:16:56 22:21:28 79° 76° (ENE) 22:25:55 145.950 - 145.970 MHz USB
MaSat-1 31 Oct 22:23:03 22:26:56 78° 296° (WNW) 22:30:25 437.345 MHz
HO-68 31 Oct 22:42:47 22:47:21 18° 270° (W) 22:51:58 435.675 MHz FM
RS-15 31 Oct 23:01:55 23:12:22 48° 317° (NW) 23:22:54 29.354 - 29.394 USB, Beacon 29.352 USB
UKube-1 31 Oct 23:03:21 23:05:35 14° 269° (W) 23:07:50 145.840 MHz, 145.915 MHz
ZACube-1 31 Oct 23:11:15 23:15:08 28° 264° (W) 23:18:58 437.345 MHz
Sapphire 01 Nov 00:56:20 00:57:47 11° 101° (ESE) 00:59:15 437.095 MHz 1200 baud AX-25 AFSK
PCSat 01 Nov 01:15:19 01:19:05 19° 106° (ESE) 01:22:51 145.825 MHz
JAS-1B 01 Nov 01:15:51 01:21:37 24° 94° (E) 01:28:06 435.800 - 435.900 CW/SSB
RS-15 01 Nov 01:20:13 01:28:23 23° 349° (N) 01:36:41 29.354 - 29.394 USB, Beacon 29.352 USB
Oscar 19 01 Nov 01:33:31 01:37:31 23° 94° (E) 01:41:30 437.125 CW, 437.150 USB
AO-27 01 Nov 02:11:19 02:15:14 21° 93° (E) 02:19:08 436.795 MHz FM
Oscar 16 01 Nov 02:19:55 02:25:01 63° 102° (ESE) 02:30:05 437.025 USB, Beacon 2401.1428
Gurwin Techsat 1B 01 Nov 02:30:16 02:33:42 17° 91° (E) 02:37:08 435.225 FM
Sapphire 01 Nov 02:34:55 02:40:19 85° 118° (ESE) 02:45:47 437.095 MHz 1200 baud AX-25 AFSK
TMSAT-1 01 Nov 02:36:45 02:39:35 14° 89° (E) 02:42:24 436.925 FM
AO-Echo 01 Nov 02:50:16 02:55:35 66° 101° (ESE) 03:00:49 ?
Uribyol 2 01 Nov 02:53:56 02:59:03 55° 101° (E) 03:04:06 436.500 FM
PCSat 01 Nov 02:56:39 03:01:59 61° 303° (WNW) 03:07:23 145.825 MHz
ITAMSAT 1 01 Nov 03:02:00 03:07:12 62° 101° (ESE) 03:12:19 435.822 SSB
JAS-1B 01 Nov 03:05:25 03:12:30 72° 288° (WNW) 03:21:00 435.800 - 435.900 CW/SSB
Oscar 19 01 Nov 03:12:12 03:17:02 44° 290° (WNW) 03:21:52 437.125 CW, 437.150 USB
RS-15 01 Nov 03:36:36 03:45:48 29° 25° (NNE) 03:55:13 29.354 - 29.394 USB, Beacon 29.352 USB
AO-27 01 Nov 03:49:58 03:55:00 49° 290° (WNW) 03:59:59 436.795 MHz FM
Oscar 16 01 Nov 04:00:34 04:03:51 17° 299° (WNW) 04:07:07 437.025 USB, Beacon 2401.1428
Gurwin Techsat 1B 01 Nov 04:08:50 04:14:05 61° 288° (WNW) 04:19:18 435.225 FM
TMSAT-1 01 Nov 04:14:44 04:20:02 72° 286° (WNW) 04:25:18 436.925 FM
OPAL 01 Nov 04:20:23 04:24:44 29° 64° (ENE) 04:29:02 ?
Sapphire 01 Nov 04:20:47 04:24:28 18° 319° (NW) 04:28:10 437.095 MHz 1200 baud AX-25 AFSK
AO-Echo 01 Nov 04:30:18 04:33:47 18° 299° (WNW) 04:37:14 ?
Uribyol 2 01 Nov 04:34:23 04:38:05 20° 298° (WNW) 04:41:47 436.500 FM
Uosat F 01 Nov 04:42:41 04:47:07 30° 96° (E) 04:51:31 435.120 FM
ITAMSAT 1 01 Nov 04:42:41 04:46:11 18° 299° (WNW) 04:49:39 435.822 SSB
PCSat 01 Nov 04:44:11 04:46:34 13° 324° (NW) 04:48:57 145.825 MHz
JAS-2 01 Nov 04:47:57 04:52:51 18° 86° (E) 04:57:38 435.800 - 435.900 CW/SSB, 435.910 FM
AO-7 01 Nov 04:51:04 04:59:10 52° 102° (ESE) 05:07:13 29.400 - 29.500 MHz
JAS-1B 01 Nov 04:58:36 05:02:12 15° 304° (NW) 05:06:05 435.800 - 435.900 CW/SSB
PANSAT 01 Nov 05:26:29 05:27:14 11° 179° (S) 05:27:59 not established
Hamsat 01 Nov 05:28:39 05:30:04 11° 90° (E) 05:31:29 145.90 MHz
RS-15 01 Nov 05:49:17 06:00:29 73° 53° (NE) 06:12:08 29.354 - 29.394 USB, Beacon 29.352 USB
Saudisat 1A 01 Nov 05:56:15 06:00:38 85° 122° (ESE) 06:05:03 436.775 MHz
TMSAT-1 01 Nov 05:58:21 05:58:59 10° 304° (NW) 05:59:37 436.925 FM
OPAL 01 Nov 05:58:49 06:03:29 35° 260° (W) 06:08:07 ?
STRAND 1 01 Nov 06:17:17 06:22:06 42° 69° (ENE) 06:26:57 ?
Uosat F 01 Nov 06:21:24 06:25:53 33° 293° (WNW) 06:30:20 435.120 FM
JAS-2 01 Nov 06:30:55 06:38:51 86° 104° (ESE) 06:46:28 435.800 - 435.900 CW/SSB, 435.910 FM
AO-7 01 Nov 06:44:13 06:51:42 39° 301° (WNW) 06:59:11 29.400 - 29.500 MHz
Hamsat 01 Nov 07:02:13 07:06:24 62° 285° (WNW) 07:10:35 145.90 MHz
SO-67 01 Nov 07:20:32 07:23:22 23° 95° (E) 07:26:11 435.3500 MHz FM
Saudisat 1A 01 Nov 07:38:11 07:40:48 15° 322° (NW) 07:43:25 436.775 MHz
STRAND 1 01 Nov 07:57:21 08:01:26 24° 266° (W) 08:05:34 ?
RS-15 01 Nov 08:02:31 08:11:59 33° 255° (WSW) 08:21:48 29.354 - 29.394 USB, Beacon 29.352 USB
MaSat-1 01 Nov 08:07:24 08:09:24 22° 250° (WSW) 08:11:20 437.345 MHz
JAS-2 01 Nov 08:17:11 08:22:53 23° 303° (WNW) 08:28:31 435.800 - 435.900 CW/SSB, 435.910 FM
HO-68 01 Nov 08:21:18 08:24:56 14° 88° (E) 08:28:33 435.675 MHz FM
ISS 01 Nov 08:51:40 08:53:06 12° 130° (SE) 08:54:33 145.800 FM
SO-67 01 Nov 08:53:40 08:56:12 19° 291° (WNW) 08:58:44 435.3500 MHz FM
Sapphire 01 Nov 09:40:28 09:43:33 15° 38° (NE) 09:46:37 437.095 MHz 1200 baud AX-25 AFSK
Oscar 11 01 Nov 09:47:18 09:50:33 21° 94° (E) 09:53:48 145.825 FM, Beacon 2401.500 USB
KITSAT 1 01 Nov 09:58:28 10:05:30 34° 108° (ESE) 10:12:33 435.175 FM
SO-50 01 Nov 10:00:17 10:02:58 16° 109° (ESE) 10:05:41 436.795 FM
PCSat 01 Nov 10:01:26 10:05:34 21° 44° (NE) 10:09:40 145.825 MHz
HO-68 01 Nov 10:06:23 10:13:38 83° 106° (ESE) 10:20:50 435.675 MHz FM
FUNcube-1 01 Nov 10:07:17 10:09:23 14° 91° (E) 10:11:29 145.950 - 145.970 MHz USB
ISS 01 Nov 10:26:02 10:29:21 81° 326° (NW) 10:32:41 145.800 FM
UKube-1 01 Nov 10:48:23 10:52:46 85° 285° (WNW) 10:57:07 145.840 MHz, 145.915 MHz
ZACube-1 01 Nov 10:59:19 11:03:26 53° 100° (E) 11:07:29 437.345 MHz
Sapphire 01 Nov 11:22:28 11:27:56 75° 59° (ENE) 11:33:21 437.095 MHz 1200 baud AX-25 AFSK
Oscar 11 01 Nov 11:22:54 11:26:49 35° 290° (WNW) 11:30:44 145.825 FM, Beacon 2401.500 USB
SO-50 01 Nov 11:38:32 11:42:59 60° 307° (NW) 11:47:35 436.795 FM
FUNcube-1 01 Nov 11:42:02 11:46:05 49° 287° (WNW) 11:50:05 145.950 - 145.970 MHz USB
PCSat 01 Nov 11:44:05 11:49:30 69° 244° (WSW) 11:54:52 145.825 MHz
KITSAT 1 01 Nov 11:52:36 12:00:31 58° 308° (NW) 12:08:30 435.175 FM
HO-68 01 Nov 11:55:27 12:00:30 21° 305° (NW) 12:05:32 435.675 MHz FM
Oscar 16 01 Nov 12:01:32 12:03:53 13° 59° (ENE) 12:06:14 437.025 USB, Beacon 2401.1428
ISS 01 Nov 12:03:50 12:06:27 21° 345° (NNW) 12:09:04 145.800 FM
JAS-1B 01 Nov 12:05:30 12:08:41 16° 57° (ENE) 12:11:55 435.800 - 435.900 CW/SSB
UOSAT-12 01 Nov 12:17:01 12:21:13 35° 115° (ESE) 12:25:30 437.025 FM, 437.400 FM
AO-Echo 01 Nov 12:28:45 12:30:36 12° 57° (ENE) 12:32:28 ?
Uribyol 2 01 Nov 12:36:42 12:38:46 12° 57° (ENE) 12:40:50 436.500 FM
ZACube-1 01 Nov 12:37:12 12:39:23 14° 297° (WNW) 12:41:33 437.345 MHz
ITAMSAT 1 01 Nov 12:44:23 12:46:56 14° 58° (ENE) 12:49:29 435.822 SSB
Saudisat 1A 01 Nov 12:44:27 12:46:34 13° 36° (NE) 12:48:41 436.775 MHz
Oscar 19 01 Nov 12:50:44 12:55:22 35° 68° (ENE) 12:59:59 437.125 CW, 437.150 USB
Sapphire 01 Nov 13:07:37 13:10:40 15° 256° (WSW) 13:13:43 437.095 MHz 1200 baud AX-25 AFSK
SO-50 01 Nov 13:22:50 13:24:33 12° 328° (NNW) 13:26:17 436.795 FM
AO-27 01 Nov 13:29:42 13:34:23 35° 67° (ENE) 13:39:05 436.795 MHz FM
Oscar 16 01 Nov 13:37:21 13:42:31 85° 257° (WSW) 13:47:41 437.025 USB, Beacon 2401.1428
ISS 01 Nov 13:41:48 13:44:02 17° 5° (N) 13:46:16 145.800 FM
Gurwin Techsat 1B 01 Nov 13:51:31 13:56:02 29° 66° (ENE) 14:00:35 435.225 FM
KITSAT 1 01 Nov 13:52:28 13:57:52 19° 333° (NNW) 14:03:18 435.175 FM
JAS-1B 01 Nov 13:52:56 13:58:39 75° 257° (WSW) 14:04:26 435.800 - 435.900 CW/SSB
UOSAT-12 01 Nov 13:57:14 14:01:23 31° 314° (NW) 14:05:37 437.025 FM, 437.400 FM
TMSAT-1 01 Nov 13:57:30 14:01:44 25° 64° (ENE) 14:06:00 436.925 FM
AO-7 01 Nov 14:02:18 14:07:11 17° 47° (NE) 14:12:04 29.400 - 29.500 MHz
AO-Echo 01 Nov 14:03:29 14:08:30 86° 75° (ENE) 14:13:43 ?
Uribyol 2 01 Nov 14:12:12 14:17:26 87° 75° (ENE) 14:22:42 436.500 FM
ITAMSAT 1 01 Nov 14:20:28 14:25:41 85° 256° (WSW) 14:30:58 435.822 SSB
Saudisat 1A 01 Nov 14:22:27 14:26:54 77° 56° (NE) 14:31:18 436.775 MHz
Oscar 19 01 Nov 14:30:18 14:34:43 29° 265° (W) 14:39:09 437.125 CW, 437.150 USB
AO-27 01 Nov 15:09:19 15:13:53 30° 264° (W) 15:18:29 436.795 MHz FM
ISS 01 Nov 15:18:19 15:21:26 35° 25° (NNE) 15:24:32 145.800 FM
Gurwin Techsat 1B 01 Nov 15:30:59 15:35:52 37° 263° (W) 15:40:47 435.225 FM
TMSAT-1 01 Nov 15:36:21 15:41:23 44° 261° (W) 15:46:28 436.925 FM
AO-Echo 01 Nov 15:46:41 15:47:59 11° 273° (W) 15:49:18 ?
